Theta_e
325 322 322 326 323 322 322 325 330 329 329 332 329 331 338 334 337 341 339 341 343 341
324 324 323 325 325 320 324 322 325 328 328 327 328 327 330 330 333 335 335 335 337 337
323 324 325 325 325 325 326 325 324 324 323 323 325 326 328 326 328 330 331 333 334 335
322 323 324 323 323 323 324 324 322 321 320 320 321 324 326 326 325 324 326 329 330 332
325 323 322 322 322 322 321 321 320 319 318 318 318 320 321 322 323 323 322 323 324 325
323 322 320 319 320 319 318 317 317 316 315 314 315 316 317 320 320 321 322 322 322 322
320 319 317 317 316 316 315 314 313 313 312 310 312 313 315 315 315 318 320 322 322 322
317 314 314 313 313 312 311 311 311 310 310 310 309 308 308 308 309 312 315 318 320 322
312 311 311 311 310 310 309 309 309 309 309 309 308 302 301 302 305 307 310 313 316 319
310 309 309 308 308 308 309 309 309 309 309 309 309 301 299 300 303 306 308 310 312 313
307 306 306 307 307 308 307 307 306 307 306 306 307 300 298 299 303 306 308 309 311 312
305 305 305 304 305 304 302 302 302 304 305 304 305 300 298 299 303 305 307 308 310 310
305 305 304 304 300 299 299 300 302 302 303 302 302 299 297 297 300 302 303 307 309 304
304 304 304 303 301 299 298 298 298 299 301 301 301 302 296 296 298 298 299 301 304 306
Wind_Speed
7 7 7 9 7 6 5 4 5 5 7 6 4 6 7 8 6 6 6 10 10 10
8 9 7 7 5 6 6 6 7 4 4 7 10 6 7 7 9 6 4 7 7 7
6 6 7 7 8 8 7 8 8 6 3 4 7 11 8 8 7 8 7 7 4 6
5 5 5 5 6 7 8 9 9 9 8 7 8 10 10 10 12 7 7 7 8 8
3 3 5 5 6 7 8 9 10 11 11 11 9 10 11 12 12 10 9 9 9 9
2 3 4 5 6 8 10 11 11 12 12 12 11 11 10 11 10 11 10 10 9 9
1 3 5 6 8 9 10 12 12 12 12 12 13 12 13 9 11 12 11 11 10 10
3 5 6 7 9 10 11 11 12 12 12 11 10 8 8 10 12 12 12 12 11 11
5 7 7 9 9 10 11 11 11 11 11 12 9 8 10 12 13 13 13 12 12 11
7 8 9 10 10 10 11 11 13 12 11 12 12 3 3 7 12 13 13 13 11 11
8 9 9 10 11 11 11 12 12 12 12 12 12 5 5 9 15 13 13 13 12 12
9 10 10 10 11 12 11 11 11 12 12 12 13 7 6 11 13 13 13 12 12 12
10 11 11 10 9 8 10 11 10 12 12 12 12 9 3 7 10 12 11 12 12 11
11 11 12 11 9 9 10 10 11 12 11 11 11 9 0 5 9 8 9 10 10 8
Wind_Direction
74 68 71 58 40 45 54 71 77 33 349 337 326 305 304 302 315 321 302 274 266 278
67 54 58 52 25 36 29 21 26 16 19 358 313 319 315 300 299 307 290 299 297 282
63 38 26 11 13 8 4 2 352 358 9 344 325 318 323 317 317 312 309 297 308 278
48 36 35 23 13 3 354 351 343 343 347 347 347 325 322 304 286 304 308 305 306 297
32 25 15 10 0 353 344 334 334 335 334 339 341 328 321 309 309 304 306 307 302 306
57 34 13 355 345 335 329 324 322 321 321 321 321 318 315 305 316 307 308 305 309 310
22 352 340 329 323 319 320 312 312 314 314 312 309 307 299 320 315 312 309 309 303 302
310 320 317 315 315 314 311 310 310 310 308 305 300 299 340 323 312 303 301 299 294 289
312 314 313 310 309 307 307 310 310 306 304 303 296 49 12 337 311 300 289 287 287 294
316 313 312 311 309 309 309 307 305 302 302 301 298 86 0 316 296 294 282 279 279 278
317 314 314 314 313 314 313 311 307 306 303 300 299 326 329 310 294 284 283 280 275 270
323 313 315 313 324 328 315 308 300 296 299 300 296 335 319 303 302 291 284 279 272 274
318 313 310 315 319 304 300 298 302 307 299 294 291 299 283 277 293 299 300 293 278 215
319 322 304 309 309 304 299 293 293 292 295 289 276 290 242 276 290 294 306 298 299 301